Terminal Aerodrome Forecast
Issued by NWS Mt. Holly, NJ

Home | Current Version | Previous Version | Text Only | Print | Product List | Glossary On
Versions: 1 2 3 4 5 6 7 8 9 10 11 12 13 14 15 16 17 18 19 20 21 22 23 24 25 26 27 28 29 30 31 32 33 34 35 36 37 38 39 40 41 42 43 44 45 46 47 48 49 50
000
FTAK31 PANC 281132
TAFABE
TAF
PABE 281132Z 2812/2912 13010G18KT 6SM -RA SCT025 BKN035
      WS020/18045KT
      TEMPO 2812/2814 BKN015
     FM282100 06010G18KT 6SM -RA SCT015 OVC025 WS020/15040KT
     FM291000 09010KT P6SM -RA SCT025 OVC050 WS020/15035KT=

USA.gov is the U.S. government's official web portal to all federal, state and local government web resources and services.